CWSW

Sparwood / Elk Valley Airport

Sparwood/Elk Valley, Canada
Issued Wind Visibility Ceiling Temperature Dew Point Humidity Barometer
Sep-23
01:00 UTC
130°
7 KTS
20 miles Broken
5,100' AGL
C
45° F
-1° C
30° F
57% 30.1" Hg
1022 hPa
VFR
Sep-23
00:00 UTC
130°
5 KTS
20 miles Overcast
5,000' AGL
C
45° F
-2° C
28° F
53% 30.1" Hg
1021.8 hPa
VFR
Sep-22
23:00 UTC
20 miles Overcast
5,600' AGL
C
46° F
-2° C
28° F
50% 30.09" Hg
1021.5 hPa
VFR
Sep-22
22:00 UTC
310°
3 KTS
20 miles Overcast
5,100' AGL
C
45° F
-2° C
28° F
53% 30.1" Hg
1021.8 hPa
VFR
Sep-22
21:00 UTC
340°
4 KTS
20 miles Broken
5,100' AGL
C
43° F
C
32° F
66% 30.11" Hg
1022.4 hPa
VFR
Sep-22
20:00 UTC
Varies @4 KTS 20 miles Overcast
5,000' AGL
C
43° F
-1° C
30° F
61% 30.12" Hg
1022.9 hPa
VFR
Sep-22
19:00 UTC
100°
6 KTS
20 miles Overcast
3,600' AGL
C
43° F
-1° C
30° F
61% 30.13" Hg
1023.1 hPa
VFR
Sep-22
18:00 UTC
090°
5 KTS
15 miles Broken
6,300' AGL
C
41° F
-1° C
30° F
66% 30.14" Hg
1023.5 hPa
VFR
Sep-22
17:00 UTC
Varies @6 KTS 15 miles Broken
4,400' AGL
C
39° F
C
32° F
75% 30.16" Hg
1024.1 hPa
VFR
Sep-22
16:00 UTC
020°
2 KTS
15 miles Broken
2,700' AGL
C
37° F
C
36° F
93% 30.16" Hg
1024.3 hPa
MVFR
Sep-22
15:00 UTC
Varies @2 KTS 15 miles Broken
2,100' AGL
C
36° F
C
34° F
93% 30.15" Hg
1024.1 hPa
MVFR
Sep-22
14:00 UTC
360°
4 KTS
20 miles Broken
2,700' AGL
C
36° F
C
34° F
93% 30.14" Hg
1023.8 hPa
MVFR
Sep-22
13:16 UTC
350°
3 KTS
15 miles Broken
2,900' AGL
C
36° F
C
34° F
93% 30.14" Hg
1023.8 hPa
MVFR
Sep-22
13:00 UTC
350°
4 KTS
15 miles Broken
3,300' AGL
C
36° F
C
34° F
93% 30.13" Hg
1023.6 hPa
VFR